When you browse on this site, cookies collect data to enhance your experience and personalize the content and advertising you see.
Visit our Privacy Policy to learn more. By continuing to use the site, you agree to this use of cookies and data.
EN

Hourly Weather Costesti

Today, 12 August, Wednesday

Time Temperature Precipitation Wind Pressure Humidity
00:00 +24°C° 0.5 mm 3 mps 741 mmHg 66%
01:00 +23°C° 0.5 mm 2 mps 741 mmHg 70%
02:00 +21°C° 0.5 mm 2 mps 740 mmHg 73%
03:00 +21°C° 0.1 mm 2 mps 741 mmHg 73%
04:00 +21°C° 0.1 mm 2 mps 741 mmHg 73%
05:00 +21°C° 0.1 mm 2 mps 741 mmHg 73%
06:00 +23°C° 0 mm 2 mps 741 mmHg 68%
07:00 +24°C° 0 mm 2 mps 741 mmHg 62%
08:00 +26°C° 0 mm 2 mps 741 mmHg 57%
09:00 +28°C° 0 mm 2 mps 741 mmHg 50%
10:00 +29°C° 0 mm 2 mps 741 mmHg 43%
11:00 +31°C° 0 mm 2 mps 741 mmHg 37%
12:00 +32°C° 0 mm 1 mps 741 mmHg 34%
13:00 +33°C° 0 mm 1 mps 740 mmHg 32%
14:00 +34°C° 0 mm 1 mps 740 mmHg 29%
15:00 +33°C° 0 mm 1 mps 740 mmHg 31%
16:00 +34°C° 0 mm 2 mps 740 mmHg 32%
17:00 +32°C° 0 mm 2 mps 740 mmHg 34%
18:00 +30°C° 0.1 mm 2 mps 740 mmHg 41%
19:00 +28°C° 0.1 mm 2 mps 740 mmHg 48%
20:00 +26°C° 0.1 mm 2 mps 741 mmHg 55%
21:00 +25°C° 0.6 mm 3 mps 741 mmHg 60%
22:00 +24°C° 0.6 mm 3 mps 741 mmHg 65%
23:00 +22°C° 0.6 mm 3 mps 741 mmHg 71%

Tomorrow, 13 August, Thursday

Time Temperature Precipitation Wind Pressure Humidity
00:00 +22°C° 0.2 mm 3 mps 742 mmHg 72%
01:00 +21°C° 0.2 mm 3 mps 742 mmHg 74%
02:00 +21°C° 0.2 mm 3 mps 742 mmHg 75%
03:00 +20°C° 0 mm 3 mps 742 mmHg 75%
04:00 +20°C° 0 mm 3 mps 742 mmHg 76%
05:00 +19°C° 0 mm 3 mps 742 mmHg 77%
06:00 +20°C° 0 mm 3 mps 742 mmHg 71%
07:00 +21°C° 0 mm 4 mps 743 mmHg 65%
08:00 +22°C° 0 mm 4 mps 743 mmHg 59%
09:00 +25°C° 0 mm 4 mps 743 mmHg 53%
10:00 +26°C° 0 mm 3 mps 743 mmHg 48%
11:00 +28°C° 0 mm 3 mps 743 mmHg 42%
12:00 +29°C° 0 mm 2 mps 743 mmHg 39%
13:00 +31°C° 0 mm 1 mps 742 mmHg 37%
14:00 +30°C° 0 mm 0 mps 742 mmHg 34%
15:00 +30°C° 0 mm 0 mps 741 mmHg 33%
16:00 +32°C° 0 mm 1 mps 741 mmHg 32%
17:00 +32°C° 0 mm 1 mps 741 mmHg 32%
18:00 +30°C° 0 mm 1 mps 741 mmHg 36%
19:00 +28°C° 0 mm 1 mps 741 mmHg 40%
20:00 +27°C° 0 mm 1 mps 741 mmHg 45%
21:00 +26°C° 0 mm 1 mps 741 mmHg 47%
22:00 +25°C° 0 mm 1 mps 741 mmHg 49%
23:00 +25°C° 0 mm 1 mps 741 mmHg 51%

Day after tomorrow, 14 August, Friday

Time Temperature Precipitation Wind Pressure Humidity
00:00 +24°C° 0 mm 1 mps 741 mmHg 54%
01:00 +23°C° 0 mm 2 mps 741 mmHg 56%
02:00 +23°C° 0 mm 2 mps 741 mmHg 59%
03:00 +21°C° 0 mm 2 mps 741 mmHg 61%
04:00 +20°C° 0 mm 2 mps 740 mmHg 63%
05:00 +20°C° 0 mm 2 mps 740 mmHg 65%
06:00 +21°C° 0 mm 3 mps 740 mmHg 62%
07:00 +24°C° 0 mm 3 mps 740 mmHg 58%
08:00 +25°C° 0 mm 3 mps 740 mmHg 55%
09:00 +27°C° 0 mm 3 mps 740 mmHg 49%
10:00 +29°C° 0 mm 2 mps 740 mmHg 43%
11:00 +31°C° 0 mm 2 mps 740 mmHg 36%
12:00 +32°C° 0 mm 2 mps 740 mmHg 33%
13:00 +34°C° 0 mm 2 mps 739 mmHg 30%
14:00 +34°C° 0 mm 1 mps 739 mmHg 26%
15:00 +34°C° 0 mm 1 mps 739 mmHg 27%
16:00 +33°C° 0 mm 1 mps 738 mmHg 28%
17:00 +33°C° 0 mm 1 mps 738 mmHg 29%
18:00 +31°C° 0 mm 2 mps 738 mmHg 34%
19:00 +29°C° 0 mm 2 mps 738 mmHg 38%
20:00 +28°C° 0 mm 3 mps 739 mmHg 42%
21:00 +27°C° 0 mm 3 mps 739 mmHg 44%
22:00 +26°C° 0 mm 3 mps 739 mmHg 47%
23:00 +25°C° 0 mm 3 mps 739 mmHg 50%

15 August, Saturday

Time Temperature Precipitation Wind Pressure Humidity
00:00 +25°C° 0 mm 3 mps 739 mmHg 50%
01:00 +25°C° 0 mm 4 mps 739 mmHg 49%
02:00 +25°C° 0 mm 5 mps 739 mmHg 49%
03:00 +23°C° 0 mm 5 mps 739 mmHg 51%
04:00 +22°C° 0 mm 5 mps 739 mmHg 52%
05:00 +22°C° 0 mm 5 mps 739 mmHg 53%
06:00 +22°C° 0 mm 6 mps 739 mmHg 56%
07:00 +22°C° 0 mm 6 mps 739 mmHg 58%
08:00 +21°C° 0 mm 7 mps 739 mmHg 61%
09:00 +22°C° 0.1 mm 6 mps 739 mmHg 59%
10:00 +23°C° 0.1 mm 6 mps 739 mmHg 58%
11:00 +23°C° 0.1 mm 6 mps 740 mmHg 57%
12:00 +24°C° 0.1 mm 6 mps 739 mmHg 55%
13:00 +24°C° 0.1 mm 6 mps 739 mmHg 54%
14:00 +26°C° 0.1 mm 6 mps 739 mmHg 53%
15:00 +24°C° 0 mm 6 mps 739 mmHg 54%
16:00 +25°C° 0 mm 5 mps 739 mmHg 54%
17:00 +25°C° 0 mm 5 mps 738 mmHg 55%
18:00 +23°C° 0 mm 5 mps 739 mmHg 56%
19:00 +23°C° 0 mm 5 mps 739 mmHg 57%
20:00 +23°C° 0 mm 5 mps 739 mmHg 58%
21:00 +23°C° 0 mm 5 mps 739 mmHg 57%
22:00 +23°C° 0 mm 5 mps 739 mmHg 55%
23:00 +23°C° 0 mm 4 mps 739 mmHg 53%

16 August, Sunday

Time Temperature Precipitation Wind Pressure Humidity
00:00 +22°C° 0 mm 4 mps 740 mmHg 54%
01:00 +22°C° 0 mm 4 mps 740 mmHg 55%
02:00 +21°C° 0 mm 4 mps 740 mmHg 56%
03:00 +21°C° 0 mm 4 mps 740 mmHg 59%
04:00 +20°C° 0 mm 5 mps 740 mmHg 62%
05:00 +20°C° 0 mm 5 mps 739 mmHg 64%
06:00 +21°C° 0 mm 5 mps 740 mmHg 63%
07:00 +21°C° 0 mm 5 mps 740 mmHg 63%
08:00 +22°C° 0 mm 5 mps 740 mmHg 62%
09:00 +23°C° 0 mm 4 mps 741 mmHg 57%
10:00 +25°C° 0 mm 4 mps 741 mmHg 52%
11:00 +26°C° 0 mm 4 mps 741 mmHg 47%
12:00 +27°C° 0 mm 4 mps 741 mmHg 43%
13:00 +28°C° 0 mm 4 mps 741 mmHg 40%
14:00 +28°C° 0 mm 4 mps 740 mmHg 36%
15:00 +29°C° 0 mm 4 mps 740 mmHg 36%
16:00 +29°C° 0 mm 4 mps 740 mmHg 35%
17:00 +29°C° 0 mm 4 mps 740 mmHg 35%
18:00 +28°C° 0 mm 4 mps 740 mmHg 38%
19:00 +26°C° 0 mm 4 mps 740 mmHg 41%
20:00 +23°C° 0 mm 4 mps 741 mmHg 44%
21:00 +23°C° 0 mm 5 mps 741 mmHg 44%
22:00 +22°C° 0 mm 5 mps 741 mmHg 44%
23:00 +21°C° 0 mm 6 mps 742 mmHg 44%

17 August, Monday

Time Temperature Precipitation Wind Pressure Humidity
00:00 +20°C° 0 mm 5 mps 742 mmHg 48%
01:00 +19°C° 0 mm 5 mps 742 mmHg 52%
02:00 +19°C° 0 mm 5 mps 742 mmHg 55%
03:00 +18°C° 0 mm 4 mps 742 mmHg 58%
04:00 +18°C° 0 mm 4 mps 742 mmHg 60%
05:00 +17°C° 0 mm 3 mps 742 mmHg 62%
06:00 +19°C° 0 mm 3 mps 742 mmHg 57%
07:00 +20°C° 0 mm 3 mps 743 mmHg 52%
08:00 +22°C° 0 mm 3 mps 743 mmHg 47%
09:00 +24°C° 0 mm 3 mps 743 mmHg 42%
10:00 +26°C° 0 mm 4 mps 743 mmHg 36%
11:00 +28°C° 0 mm 4 mps 743 mmHg 31%
12:00 +28°C° 0 mm 3 mps 743 mmHg 29%
13:00 +29°C° 0 mm 3 mps 742 mmHg 28%
14:00 +30°C° 0 mm 3 mps 742 mmHg 27%
15:00 +30°C° 0 mm 3 mps 742 mmHg 26%
16:00 +30°C° 0 mm 3 mps 741 mmHg 26%
17:00 +30°C° 0 mm 3 mps 741 mmHg 26%
18:00 +29°C° 0 mm 3 mps 741 mmHg 30%
19:00 +27°C° 0 mm 2 mps 741 mmHg 33%
20:00 +25°C° 0 mm 2 mps 741 mmHg 37%
21:00 +24°C° 0 mm 3 mps 742 mmHg 40%
22:00 +22°C° 0 mm 3 mps 742 mmHg 43%
23:00 +21°C° 0 mm 3 mps 742 mmHg 45%
Show more